FW9776 Weather Reports


time (UTC)temp
C
wind
direction
speed
KPH
gust
KPH
rain 1hr
cm
rain 24hr
cm
rain mn
cm
humidity
%
barometer
mb
20260507220054 12 173 11.3 19.3 0.00 2.24 2.24 94 1001.9
20260507214555 12 154 8.0 16.1 0.00 2.24 2.24 95 1001.7
20260507213054 12 145 8.0 17.7 0.00 2.24 2.24 95 1001.4
20260507211554 12 133 9.7 19.3 0.00 2.24 2.24 95 1001.7
20260507210056 12 145 12.9 22.5 0.00 2.24 2.24 95 1001.8
20260507204555 12 175 9.7 19.3 0.05 2.24 2.24 96 1002.0
20260507203054 12 169 4.8 20.9 0.08 2.24 2.24 96 1001.8
20260507201606 12 169 11.3 22.5 0.08 2.24 2.24 96 1001.0
20260507200057 11 182 14.5 29.0 0.15 2.21 2.21 96 1000.9
20260507194554 11 114 16.1 24.1 0.28 2.16 2.16 96 1000.9
20260507193056 12 135 12.9 20.9 0.56 2.16 2.16 96 1002.3
20260507191558 11 121 9.7 16.1 0.71 2.13 2.13 96 1002.2
20260507190059 12 136 6.4 16.1 0.79 2.06 2.06 95 1002.8
20260507184559 12 165 11.3 24.1 0.89 1.88 1.88 95 1003.2
20260507183055 12 139 11.3 22.5 0.84 1.57 1.57 94 1003.9
20260507181556 12 178 12.9 25.7 1.04 1.40 1.40 94 1003.9
20260507180057 12 177 16.1 27.4 1.22 1.24 1.24 94 1004.0
20260507174605 12 181 12.9 30.6 0.97 0.99 0.99 94 1004.3
20260507173101 12 183 11.3 22.5 0.74 0.74 0.74 94 1005.0
20260507171604 12 193 16.1 38.6 0.36 0.36 0.36 93 1004.9
20260507170055 13 179 11.3 40.2 0.03 0.03 0.03 93 1004.2
20260507164556 14 154 17.7 46.7 0.00 0.00 0.00 93 1003.9
20260507163122 14 176 17.7 48.3 0.00 0.00 0.00 92 1004.0
20260507161557 14 138 14.5 38.6 0.00 0.00 0.00 91 1004.3
20260507160056 15 146 20.9 37.0 0.00 0.00 0.00 88 1004.7
20260507154557 15 173 24.1 54.7 0.00 0.00 0.00 87 1005.2
20260507153056 15 164 25.7 49.9 0.00 0.00 0.00 87 1005.5
20260507151555 14 152 22.5 41.8 0.00 0.00 0.00 88 1005.9
20260507150101 14 175 25.7 56.3 0.00 0.00 0.00 88 1006.5
20260507144617 15 157 19.3 46.7 0.00 0.00 0.00 88 1006.9
20260507143059 15 150 20.9 51.5 0.00 0.00 0.00 85 1007.1
20260507141626 15 185 19.3 51.5 0.00 0.00 0.00 86 1007.2
20260507134558 15 176 20.9 43.5 0.00 0.00 0.00 85 1007.5
20260507133056 15 148 22.5 46.7 0.00 0.00 0.00 85 1007.9
20260507131555 15 144 24.1 51.5 0.00 0.00 0.00 86 1007.9
20260507130105 15 188 20.9 45.1 0.00 0.00 0.00 88 1007.7
20260507124605 15 180 16.1 48.3 0.00 0.00 0.00 90 1008.6
20260507123056 14 160 24.1 53.1 0.00 0.00 0.00 89 1008.3
20260507121559 14 175 25.7 56.3 0.00 0.00 0.00 89 1008.5
20260507120055 14 176 25.7 49.9 0.00 0.00 0.00 89 1008.2
20260507114558 13 183 22.5 38.6 0.00 0.00 0.00 92 1008.6
20260507113056 13 154 24.1 46.7 0.00 0.00 0.00 92 1009.2
20260507111555 13 180 20.9 40.2 0.00 0.00 0.00 92 1009.1
20260507110059 13 181 20.9 41.8 0.00 0.00 0.00 92 1009.1
20260507104557 13 158 20.9 46.7 0.00 0.00 0.00 92 1009.3
20260507103100 13 173 19.3 48.3 0.00 0.00 0.00 92 1009.3
20260507101556 13 160 17.7 38.6 0.00 0.00 0.00 92 1009.6
20260507100056 13 139 17.7 38.6 0.00 0.00 0.00 93 1009.2
20260507094554 12 157 11.3 27.4 0.00 0.00 0.00 94 1009.8
20260507093059 12 142 17.7 38.6 0.00 0.00 0.00 94 1010.0
20260507091559 12 152 20.9 33.8 0.00 0.00 0.00 94 1010.4
20260507090056 12 179 20.9 37.0 0.00 0.00 0.00 94 1010.4
20260507084557 12 153 12.9 30.6 0.00 0.00 0.00 94 1010.2
20260507083056 12 181 12.9 29.0 0.00 0.00 0.00 94 1010.6
20260507081558 12 182 14.5 29.0 0.00 0.00 0.00 94 1011.0
20260507080053 12 168 12.9 25.7 0.00 0.00 0.00 94 1011.2
20260507074556 12 124 12.9 32.2 0.00 0.00 0.00 93 1011.3
20260507073101 11 155 14.5 33.8 0.00 0.00 0.00 92 1010.9
20260507071557 11 158 17.7 38.6 0.00 0.00 0.00 92 1011.3
20260507070100 11 147 11.3 29.0 0.00 0.00 0.00 91 1011.7
20260507064556 11 169 14.5 30.6 0.00 0.00 0.00 90 1012.6
20260507063055 11 143 11.3 32.2 0.00 0.00 0.00 89 1012.4
20260507061554 11 174 12.9 24.1 0.00 0.00 0.00 89 1012.7
20260507060104 12 200 16.1 29.0 0.00 0.00 0.00 89 1012.5
20260507054604 11 144 8.0 17.7 0.00 0.00 0.00 89 1012.8
20260507053059 11 129 9.7 17.7 0.00 0.00 0.00 89 1013.0
20260507051556 11 120 3.2 12.9 0.00 0.00 0.00 89 1013.5
20260507050058 11 115 4.8 16.1 0.00 0.00 0.00 89 1014.1
20260507044606 11 123 3.2 8.0 0.00 0.00 0.00 89 1014.4
20260507043104 11 113 6.4 12.9 0.00 0.00 0.00 89 1014.6
20260507041553 11 96 8.0 16.1 0.00 0.00 0.00 89 1014.9
20260507040056 11 126 11.3 17.7 0.00 0.00 0.00 89 1015.2
20260507034606 11 120 9.7 16.1 0.00 0.00 0.00 88 1015.5
20260507033058 11 108 8.0 16.1 0.00 0.00 0.00 87 1016.0
20260507031554 11 114 8.0 14.5 0.00 0.00 0.00 87 1016.1
20260507024557 11 113 6.4 14.5 0.00 0.00 0.00 85 1016.3
20260507023056 12 107 11.3 19.3 0.00 0.00 0.00 86 1016.5
20260507021557 12 93 8.0 14.5 0.00 0.00 0.00 86 1016.5
20260507020059 12 120 6.4 12.9 0.00 0.00 0.00 86 1016.7
20260507014558 12 108 8.0 14.5 0.00 0.00 0.00 86 1016.7
20260507013101 12 93 9.7 17.7 0.00 0.00 0.00 86 1017.0
20260507011557 12 116 8.0 17.7 0.00 0.00 0.00 85 1017.1
20260507010056 12 121 8.0 20.9 0.00 0.00 0.00 84 1017.0
20260507004600 12 156 8.0 25.7 0.00 0.00 0.00 84 1016.9
20260507003057 12 158 11.3 19.3 0.00 0.00 0.00 83 1017.1
20260507001554 13 164 12.9 24.1 0.00 0.00 0.00 83 1017.0
20260507000056 13 170 8.0 20.9 0.00 0.00 0.00 82 1017.0
20260506234557 13 127 8.0 25.7 0.00 0.00 0.00 81 1017.1
20260506233056 13 164 12.9 25.7 0.00 0.00 0.00 79 1017.2
20260506231558 13 151 12.9 32.2 0.00 0.00 0.00 77 1016.9
20260506230056 14 174 11.3 38.6 0.00 0.00 0.00 75 1016.8
20260506224607 15 156 14.5 32.2 0.00 0.00 0.00 74 1016.6
20260506223057 15 187 12.9 30.6 0.00 0.00 0.00 73 1016.4
20260506221558 16 133 11.3 35.4 0.00 0.00 0.00 71 1016.2